NOZ96F ENGM-ENVA

Flight info

Callsign NOZ96F
Flight time 0h 45m
Altitude 30000
Route RIBBE DCT GIGNI DCT VEVOD
Aircraft B38M/M-SDE1FGHILORVWXY/HB1

Departure

Time 2026-05-05 19:17
Airport Oslo-Gardermoen International Airport (ENGM)

Arrival

Time 2026-05-05 20:02
Airport Trondheim Airport, Værnes (ENVA)
Time Latitude Longitude Altitude Speed Heading
2026-05-05 18:52 60.19374 11.08975 693 ft 0 kts 195°
2026-05-05 19:09 60.19381 11.08978 688 ft 4 kts 196°
2026-05-05 19:10 60.19407 11.08995 692 ft 4 kts 198°
2026-05-05 19:10 60.19417 11.09002 684 ft 0 kts 196°
2026-05-05 19:12 60.19415 11.09000 684 ft 2 kts 196°
2026-05-05 19:13 60.19406 11.08977 694 ft 3 kts 258°
2026-05-05 19:13 60.19432 11.08932 694 ft 9 kts 329°
2026-05-05 19:13 60.19493 11.08824 692 ft 15 kts 293°
2026-05-05 19:13 60.19524 11.08595 686 ft 19 kts 285°
2026-05-05 19:14 60.19521 11.08358 690 ft 12 kts 212°
2026-05-05 19:14 60.19433 11.08304 691 ft 15 kts 196°
2026-05-05 19:14 60.19322 11.08239 687 ft 19 kts 195°
2026-05-05 19:14 60.19257 11.08052 685 ft 13 kts 286°
2026-05-05 19:15 60.19291 11.07872 685 ft 14 kts 321°
2026-05-05 19:15 60.19354 11.07865 687 ft 0 kts 16°
2026-05-05 19:15 60.19355 11.07865 687 ft 1 kts 16°
2026-05-05 19:16 60.19385 11.07884 687 ft 23 kts 16°
2026-05-05 19:16 60.19801 11.08124 687 ft 99 kts 16°
2026-05-05 19:16 60.20671 11.08621 689 ft 158 kts 13°
2026-05-05 19:16 60.21792 11.09260 1148 ft 176 kts 14°
2026-05-05 19:17 60.22977 11.09947 2055 ft 178 kts 13°
2026-05-05 19:17 60.24176 11.10613 2876 ft 186 kts 12°
2026-05-05 19:17 60.25518 11.11257 3449 ft 209 kts
2026-05-05 19:17 60.27046 11.10998 4022 ft 232 kts 349°
2026-05-05 19:18 60.28716 11.10526 4804 ft 251 kts 350°
2026-05-05 19:18 60.30483 11.10012 5767 ft 258 kts 350°
2026-05-05 19:18 60.32248 11.09483 6807 ft 263 kts 349°
2026-05-05 19:18 60.34083 11.09027 7800 ft 269 kts 358°
2026-05-05 19:19 60.35921 11.09901 8843 ft 276 kts 22°
2026-05-05 19:19 60.37704 11.11487 9775 ft 284 kts 20°
2026-05-05 19:19 60.39559 11.13049 10551 ft 295 kts 20°
2026-05-05 19:19 60.41503 11.14712 11162 ft 310 kts 20°
2026-05-05 19:20 60.43523 11.16457 11935 ft 318 kts 20°
2026-05-05 19:20 60.45534 11.18204 12899 ft 320 kts 20°
2026-05-05 19:20 60.47597 11.20002 13798 ft 324 kts 20°
2026-05-05 19:20 60.49688 11.21827 14598 ft 329 kts 19°
2026-05-05 19:21 60.51811 11.23684 15376 ft 335 kts 19°
2026-05-05 19:21 60.53968 11.25574 16196 ft 340 kts 18°
2026-05-05 19:21 60.56162 11.27501 16998 ft 346 kts 17°
2026-05-05 19:21 60.58391 11.29462 17792 ft 351 kts 17°
2026-05-05 19:22 60.60655 11.31455 18507 ft 357 kts 16°
2026-05-05 19:22 60.62952 11.33481 19151 ft 362 kts 15°
2026-05-05 19:22 60.65280 11.35537 19797 ft 367 kts 15°
2026-05-05 19:22 60.67639 11.37626 20451 ft 370 kts 14°
2026-05-05 19:23 60.69993 11.39715 21201 ft 372 kts 13°
2026-05-05 19:23 60.72362 11.41815 21636 ft 380 kts 13°
2026-05-05 19:23 60.74828 11.43783 22171 ft 375 kts
2026-05-05 19:23 60.77354 11.44343 22755 ft 364 kts 351°
2026-05-05 19:24 60.79923 11.44684 23293 ft 372 kts 352°
2026-05-05 19:24 60.82517 11.45044 23795 ft 376 kts 352°
2026-05-05 19:24 60.85137 11.45389 24300 ft 379 kts 352°
2026-05-05 19:24 60.87778 11.45728 24777 ft 382 kts 352°
2026-05-05 19:25 60.90445 11.46065 25248 ft 385 kts 352°
2026-05-05 19:25 60.93134 11.46401 25705 ft 389 kts 352°
2026-05-05 19:25 60.95850 11.46741 26153 ft 392 kts 352°
2026-05-05 19:25 60.98579 11.47081 26614 ft 395 kts 352°
2026-05-05 19:26 61.01340 11.47426 27065 ft 398 kts 352°
2026-05-05 19:26 61.04124 11.47774 27484 ft 401 kts 352°
2026-05-05 19:26 61.06882 11.48111 27979 ft 400 kts 351°
2026-05-05 19:26 61.09645 11.48117 28550 ft 397 kts 349°
2026-05-05 19:27 61.12404 11.48113 29081 ft 397 kts 349°
2026-05-05 19:27 61.15175 11.48124 29607 ft 397 kts 349°
2026-05-05 19:27 61.17943 11.48142 29925 ft 400 kts 349°
2026-05-05 19:27 61.20721 11.48164 29911 ft 397 kts 349°
2026-05-05 19:28 61.26241 11.48212 29900 ft 397 kts 349°
2026-05-05 19:28 61.31769 11.48262 29904 ft 397 kts 350°
2026-05-05 19:29 61.37303 11.48307 29906 ft 397 kts 350°
2026-05-05 19:29 61.42841 11.48326 29910 ft 395 kts 350°
2026-05-05 19:30 61.48258 11.48345 29920 ft 391 kts 351°
2026-05-05 19:30 61.53692 11.48364 29915 ft 391 kts 351°
2026-05-05 19:31 61.59126 11.48383 29898 ft 390 kts 351°
2026-05-05 19:31 61.64561 11.48403 29902 ft 391 kts 351°
2026-05-05 19:32 61.69998 11.48422 29916 ft 391 kts 352°
2026-05-05 19:32 61.75447 11.48442 29923 ft 391 kts 352°
2026-05-05 19:33 61.80899 11.48461 29926 ft 392 kts 352°
2026-05-05 19:33 61.86326 11.48481 29921 ft 392 kts 352°
2026-05-05 19:34 61.91782 11.48501 29918 ft 392 kts 352°
2026-05-05 19:35 61.99960 11.48489 29918 ft 389 kts 349°
2026-05-05 19:35 62.05280 11.47071 29927 ft 386 kts 346°
2026-05-05 19:36 62.10592 11.45823 29929 ft 381 kts 347°
2026-05-05 19:36 62.13190 11.45226 29755 ft 371 kts 347°
2026-05-05 19:36 62.15747 11.44639 29315 ft 369 kts 347°
2026-05-05 19:36 62.18294 11.44053 28912 ft 366 kts 347°
2026-05-05 19:37 62.20818 11.43473 28503 ft 362 kts 347°
2026-05-05 19:37 62.23316 11.42898 28125 ft 359 kts 347°
2026-05-05 19:37 62.25792 11.42327 27721 ft 357 kts 348°
2026-05-05 19:37 62.28258 11.41757 27318 ft 355 kts 348°
2026-05-05 19:38 62.30702 11.41190 26931 ft 352 kts 348°
2026-05-05 19:38 62.33129 11.40627 26554 ft 350 kts 348°
2026-05-05 19:38 62.35543 11.40067 26165 ft 347 kts 348°
2026-05-05 19:38 62.37942 11.39509 25784 ft 345 kts 348°
2026-05-05 19:39 62.40291 11.38961 25412 ft 343 kts 349°
2026-05-05 19:39 62.42660 11.38409 25024 ft 341 kts 349°
2026-05-05 19:39 62.45009 11.37860 24657 ft 339 kts 349°
2026-05-05 19:39 62.47351 11.37311 24287 ft 337 kts 349°
2026-05-05 19:40 62.49681 11.36765 23912 ft 336 kts 350°
2026-05-05 19:40 62.52001 11.36221 23550 ft 334 kts 350°
2026-05-05 19:40 62.54310 11.35677 23137 ft 333 kts 350°
2026-05-05 19:40 62.56614 11.35134 22720 ft 331 kts 350°
2026-05-05 19:41 62.58896 11.34596 22356 ft 327 kts 350°
2026-05-05 19:41 62.61148 11.34063 22010 ft 324 kts 350°
2026-05-05 19:41 62.63348 11.33542 21660 ft 320 kts 350°
2026-05-05 19:41 62.65549 11.33020 21322 ft 316 kts 350°
2026-05-05 19:42 62.67729 11.32503 20980 ft 313 kts 350°
2026-05-05 19:42 62.69885 11.31990 20653 ft 310 kts 350°
2026-05-05 19:42 62.72024 11.31481 20326 ft 307 kts 350°
2026-05-05 19:42 62.74139 11.30977 20007 ft 304 kts 350°
2026-05-05 19:43 62.76229 11.30478 19689 ft 301 kts 350°
2026-05-05 19:43 62.78307 11.29981 19373 ft 299 kts 350°
2026-05-05 19:43 62.80363 11.29489 19063 ft 296 kts 350°
2026-05-05 19:43 62.82399 11.29002 18750 ft 293 kts 350°
2026-05-05 19:44 62.84443 11.28786 18411 ft 293 kts 354°
2026-05-05 19:44 62.86478 11.28652 18097 ft 291 kts 354°
2026-05-05 19:44 62.88495 11.28503 17763 ft 289 kts 354°
2026-05-05 19:44 62.90494 11.28344 17449 ft 286 kts 354°
2026-05-05 19:45 62.92472 11.28181 17146 ft 283 kts 354°
2026-05-05 19:45 62.94426 11.28017 16847 ft 280 kts 354°
2026-05-05 19:45 62.96336 11.27857 16549 ft 277 kts 354°
2026-05-05 19:45 62.98253 11.27695 16250 ft 274 kts 354°
2026-05-05 19:46 63.00152 11.27596 15945 ft 273 kts 359°
2026-05-05 19:46 63.02029 11.28297 15621 ft 274 kts
2026-05-05 19:46 63.03888 11.29152 15337 ft 272 kts
2026-05-05 19:46 63.05757 11.29994 15060 ft 277 kts
2026-05-05 19:47 63.07662 11.30847 14766 ft 281 kts
2026-05-05 19:47 63.09585 11.31706 14461 ft 282 kts
2026-05-05 19:47 63.11512 11.32566 14164 ft 283 kts
2026-05-05 19:47 63.13444 11.33428 13855 ft 282 kts
2026-05-05 19:48 63.15363 11.34351 13520 ft 283 kts 13°
2026-05-05 19:48 63.17199 11.35900 13263 ft 279 kts 17°
2026-05-05 19:48 63.18975 11.37406 13155 ft 269 kts 16°
2026-05-05 19:48 63.20118 11.38392 13048 ft 264 kts 20°
2026-05-05 19:49 63.21590 11.40817 12736 ft 269 kts 50°
2026-05-05 19:49 63.22325 11.44612 12453 ft 271 kts 81°
2026-05-05 19:49 63.22151 11.50047 12154 ft 265 kts 98°
2026-05-05 19:49 63.21890 11.54070 11896 ft 264 kts 97°
2026-05-05 19:50 63.21827 11.56832 11689 ft 267 kts 82°
2026-05-05 19:50 63.22288 11.60826 11366 ft 269 kts 69°
2026-05-05 19:50 63.22824 11.64818 11101 ft 271 kts 71°
2026-05-05 19:50 63.23346 11.68846 10813 ft 272 kts 72°
2026-05-05 19:51 63.24055 11.72689 10487 ft 267 kts 51°
2026-05-05 19:51 63.25269 11.75743 10203 ft 263 kts 44°
2026-05-05 19:51 63.26463 11.78804 9914 ft 261 kts 45°
2026-05-05 19:51 63.27644 11.81847 9655 ft 259 kts 45°
2026-05-05 19:52 63.28951 11.84409 9303 ft 251 kts 23°
2026-05-05 19:52 63.30531 11.85953 9018 ft 247 kts 19°
2026-05-05 19:52 63.32131 11.87165 8704 ft 238 kts
2026-05-05 19:52 63.33708 11.86600 8406 ft 226 kts 330°
2026-05-05 19:53 63.34884 11.84453 8185 ft 217 kts 304°
2026-05-05 19:53 63.35536 11.81497 7949 ft 211 kts 287°
2026-05-05 19:53 63.35928 11.78378 7721 ft 207 kts 285°
2026-05-05 19:53 63.36292 11.75225 7487 ft 213 kts 284°
2026-05-05 19:54 63.36639 11.71964 7227 ft 218 kts 283°
2026-05-05 19:54 63.36972 11.68642 6949 ft 220 kts 283°
2026-05-05 19:54 63.37293 11.65329 6681 ft 217 kts 283°
2026-05-05 19:54 63.37602 11.62063 6443 ft 213 kts 282°
2026-05-05 19:55 63.37882 11.59040 6243 ft 210 kts 282°
2026-05-05 19:55 63.38312 11.55964 5922 ft 207 kts 302°
2026-05-05 19:55 63.39360 11.53835 5689 ft 210 kts 329°
2026-05-05 19:55 63.40723 11.52600 5428 ft 214 kts 335°
2026-05-05 19:56 63.42131 11.51410 5205 ft 218 kts 336°
2026-05-05 19:56 63.43542 11.50254 5082 ft 214 kts 335°
2026-05-05 19:56 63.44782 11.48550 4838 ft 209 kts 310°
2026-05-05 19:56 63.45439 11.45730 4606 ft 204 kts 283°
2026-05-05 19:57 63.45607 11.42643 4477 ft 197 kts 274°
2026-05-05 19:57 63.45653 11.39654 4374 ft 188 kts 272°
2026-05-05 19:57 63.45671 11.36791 4219 ft 182 kts 271°
2026-05-05 19:57 63.45680 11.33950 3989 ft 181 kts 271°
2026-05-05 19:58 63.45687 11.31200 3891 ft 176 kts 271°
2026-05-05 19:58 63.45692 11.28448 3647 ft 178 kts 271°
2026-05-05 19:58 63.45697 11.25716 3376 ft 172 kts 271°
2026-05-05 19:58 63.45702 11.23190 3159 ft 159 kts 271°
2026-05-05 19:59 63.45706 11.20817 2936 ft 146 kts 271°
2026-05-05 19:59 63.45709 11.18663 2704 ft 133 kts 270°
2026-05-05 19:59 63.45714 11.16602 2491 ft 132 kts 271°
2026-05-05 19:59 63.45717 11.14548 2263 ft 132 kts 270°
2026-05-05 20:00 63.45721 11.12496 2041 ft 132 kts 270°
2026-05-05 20:00 63.45724 11.10434 1818 ft 133 kts 270°
2026-05-05 20:00 63.45725 11.08354 1578 ft 134 kts 270°
2026-05-05 20:00 63.45721 11.06274 1342 ft 133 kts 270°
2026-05-05 20:01 63.45730 11.04229 1129 ft 133 kts 271°
2026-05-05 20:01 63.45742 11.02177 906 ft 130 kts 271°
2026-05-05 20:01 63.45747 11.00155 713 ft 131 kts 271°
2026-05-05 20:01 63.45753 10.98124 525 ft 130 kts 271°
2026-05-05 20:02 63.45756 10.96096 315 ft 130 kts 271°
2026-05-05 20:02 63.45757 10.94085 94 ft 128 kts 271°
2026-05-05 20:02 63.45762 10.92312 44 ft 90 kts 270°
2026-05-05 20:02 63.45761 10.91437 39 ft 39 kts 270°
2026-05-05 20:03 63.45762 10.90810 37 ft 41 kts 262°
2026-05-05 20:03 63.45690 10.90411 35 ft 27 kts 218°
2026-05-05 20:03 63.45600 10.90440 35 ft 14 kts 108°
2026-05-05 20:03 63.45597 10.90676 37 ft 16 kts 90°
2026-05-05 20:04 63.45596 10.90944 38 ft 19 kts 90°
2026-05-05 20:04 63.45596 10.91253 39 ft 21 kts 90°
2026-05-05 20:04 63.45595 10.91585 41 ft 23 kts 90°
2026-05-05 20:04 63.45595 10.91954 42 ft 25 kts 90°
2026-05-05 20:05 63.45596 10.92274 43 ft 17 kts 89°
2026-05-05 20:05 63.45558 10.92416 44 ft 12 kts 168°
2026-05-05 20:05 63.45489 10.92426 44 ft 11 kts 198°
2026-05-05 20:05 63.45469 10.92316 42 ft 11 kts 270°
2026-05-05 20:06 63.45469 10.92276 42 ft 0 kts 270°